{"data":{"norad_id":61230,"intl_designator":"2024-173D","name":"2024-173D","alt_names":[],"object_type":"PAYLOAD","status":"ACTIVE","operator":null,"country":"PRC","launch_date":"2024-09-24","launch_site_code":"YSLA","launch_vehicle":null,"mission":null,"orbit_class":"UNKNOWN","rcs_meters":null,"size_class":null,"mass_kg":null,"dimensions":null,"purposes":[],"wikipedia_slug":null,"has_3d_model":false,"image_url":null,"decayed_at":null,"tle_current":{"epoch":"2026-09-22T23:22:33.154176Z","epoch_age_seconds":80929,"freshness":"FRESH","line1":"1 61230U 24173D   26265.97399484  .00011611  00000+0  37131-3 0  9990","line2":"2 61230  97.3494 344.4065 0007366 265.2048  94.8353 15.32561603111428","mean_motion":15.32561603,"eccentricity":0.0007366,"inclination_deg":97.3494,"raan_deg":344.4065,"arg_perigee_deg":265.2048,"mean_anomaly_deg":94.8353,"bstar":0.00037131,"rev_number":11142,"period_min":93.96033393902,"perigee_km":463.1298130778,"apogee_km":473.21579668235,"semimajor_km":6846.3098048801,"source":"CELESTRAK","updated_at":"2026-09-23T09:00:20.855990Z"}}}